Location: Newark
(43.0000°N, 1.6781°W)
Time: 21:12:28
(UTC+00:00)

CAS-4B - Pass Details

Date: 08 December 2022
Orbit: 515 x 531 km, 43.0° (Epoch: 04 February)

Event Time Altitude Azimuth Distance (km) Brightness Sun altitude
Exits shadow 04:26:43 20° 111° (ESE) 1,244 ? -31.8°
Drops below altitude 10° 04:28:29 10° 91° (E) 1,776 ? -31.4°
Sets 04:30:57 0° 80° (E) 2,672 ? -31.0°
